Defiance, OH

11:08 PM EST on November 20, 2019 (GMT -0500)
Defiance Memorial

Weather History for KDFI - September, 2019

Change the Weather History Date:

Tuesday, September 3, 2019

  Actual Average Record
Temperature  
Mean Temperature 70 °F -  
Max Temperature 78 °F 80 °F 99 °F (1953)
Min Temperature 61 °F 57 °F 39 °F (1946)
Cooling Degree Days 4    
Growing Degree Days 20 (Base 50)    
Moisture  
Dew Point 63 °F    
Average Humidity 83    
Maximum Humidity 94    
Minimum Humidity 68    
Precipitation  
Precipitation 0.00 in - - ()
Sea Level Pressure  
Sea Level Pressure 29.97 in    
Wind  
Wind Speed 3 mph (SSW)    
Max Wind Speed 23 mph    
Max Gust Speed 33 mph    
Visibility 8 miles    
Events      
Averages and records for this station are not official NWS values.
T = Trace of Precipitation, MM = Missing Value Source: NWS Daily Summary

Daily Weather History Graph

Daily Weather History Graph

Search for Another Location

Airport or City:

Astronomy

Sep. 03, 2019 Rise Set
Actual Time 7:05 AM EDT 8:07 PM EDT
Civil Twilight 6:37 AM EDT 8:35 PM EDT
Nautical Twilight 6:03 AM EDT 9:09 PM EDT
Astronomical Twilight 5:28 AM EDT 9:44 PM EDT
Moon 12:00 PM EDT (9/3) 11:00 PM EDT (9/3)
Length of Visible Light 13h 58m
Length of Day
13h 01m
Waxing Crescent, 24% of the Moon is Illuminated
Sep 3
Waxing Crescent
Sep 5
First Quarter
Sep 14
Full
Sep 21
Last Quarter
Sep 28
New

Hourly Weather History & Observations

Time (EDT) Temp. Dew Point Humidity Pressure Visibility Wind Dir Wind Speed Gust Speed Precip Events Conditions
12:53 AM 64.0 °F 62.1 °F 93% 30.06 in 9.0 mi Calm Calm - N/A   Clear
1:53 AM 64.0 °F 62.1 °F 93% 30.06 in 8.0 mi Calm Calm - N/A   Clear
2:53 AM 64.0 °F 61.0 °F 90% 30.04 in 5.0 mi Calm Calm - N/A   Clear
3:35 AM 63.0 °F 60.1 °F 90% 30.04 in 2.0 mi Calm Calm - N/A   Clear
3:43 AM 63.0 °F 61.0 °F 93% 30.05 in 1.0 mi Calm Calm - N/A   Clear
3:51 AM 62.6 °F 60.8 °F 94% 30.04 in 3.0 mi Calm Calm - N/A   Clear
3:53 AM 63.0 °F 61.0 °F 93% 30.03 in 5.0 mi Calm Calm - N/A   Clear
4:53 AM 62.1 °F 60.1 °F 93% 30.04 in 6.0 mi Calm Calm - N/A   Clear
5:01 AM 62.1 °F 59.0 °F 90% 30.04 in 2.0 mi Calm Calm - N/A   Clear
5:06 AM 62.1 °F 60.1 °F 93% 30.04 in 3.0 mi Calm Calm - N/A   Clear
5:53 AM 61.0 °F 59.0 °F 93% 30.04 in 6.0 mi Calm Calm - N/A   Clear
6:53 AM 61.0 °F 59.0 °F 93% 30.04 in 4.0 mi Calm Calm - N/A   Clear
7:53 AM 63.0 °F 61.0 °F 93% 30.04 in 5.0 mi Calm Calm - N/A   Clear
8:53 AM 66.9 °F 64.0 °F 90% 30.05 in 8.0 mi SSW 4.6 mph - N/A   Clear
9:53 AM 70.0 °F 64.9 °F 84% 30.05 in 10.0 mi SW 4.6 mph - N/A   Clear
10:53 AM 72.0 °F 64.0 °F 76% 30.05 in 10.0 mi SW 9.2 mph - N/A   Clear
11:53 AM 73.9 °F 64.0 °F 71% 30.00 in 10.0 mi SSW 13.8 mph 25.3 mph N/A   Clear
12:53 PM 72.0 °F 64.0 °F 76% 29.91 in 10.0 mi South 15.0 mph 27.6 mph N/A   Scattered Clouds
1:53 PM 73.9 °F 64.0 °F 71% 29.88 in 10.0 mi SSW 23.0 mph 33.4 mph N/A   Clear
2:53 PM 75.0 °F 64.9 °F 71% 29.87 in 10.0 mi SSW 13.8 mph 23.0 mph N/A   Clear
3:53 PM 75.0 °F 64.9 °F 71% 29.87 in 10.0 mi SW 8.1 mph - N/A   Clear
4:53 PM 75.9 °F 66.0 °F 71% 29.86 in 10.0 mi SW 5.8 mph - N/A   Scattered Clouds
5:53 PM 78.1 °F 66.9 °F 68% 29.86 in 10.0 mi SW 6.9 mph - N/A   Mostly Cloudy
6:53 PM 77.0 °F 68.0 °F 74% 29.86 in 10.0 mi SSW 3.5 mph - N/A   Scattered Clouds
7:53 PM 77.0 °F 66.9 °F 71% 29.85 in 10.0 mi SW 6.9 mph - N/A   Partly Cloudy
8:53 PM 75.0 °F 68.0 °F 79% 29.84 in 10.0 mi SSW 9.2 mph - N/A   Scattered Clouds
9:53 PM 75.0 °F 66.9 °F 76% 29.82 in 10.0 mi SSW 8.1 mph 18.4 mph N/A   Clear
11:34 PM 75.0 °F 66.9 °F 76% 29.84 in 10.0 mi SW 9.2 mph 19.6 mph N/A   Scattered Clouds
11:53 PM 75.0 °F 68.0 °F 79% 29.82 in 10.0 mi SSW 11.5 mph 19.6 mph N/A   Clear